Torna al catalogo

STARLINK-2371

AttivoComunicazioniVLEO
NORAD 47911·PAYLOAD·🇺🇸 United States

Lanciato Mar 14, 2021 da Cape Canaveral Space Force Station

Loading…

Prossimi Passaggi (prossime 24 ore)

TLE

AggiornatoSource: CelesTrak SupGP

Epoca: Sep 15, 2026, 02:46 UTC

1 47911C 21021BD  26258.11576389  .00069338  00000+0  21847-2 0  2581
2 47911  53.1569 119.4146 0000738  90.7561  31.0290 15.32318875    14

Traccia STARLINK-2371 in tempo reale con AllMySat

Download on the App Store